Погода Полярный

Погода Полярный : погода сейчас, прогноз погоды и архив. Всё, что Вы хотите узнать о погоде Полярный!

Хотите узнать прогноз погоды Полярный? Тогда Вам сюда: Погода Полярный

Поиск расширенной информации на нашем сайте:

Другие новости

Новости СМИ2

Главная страница сайта

Новости сайта

03.07.2017

Напоминаем, что на нашем специализированном сайте Метеоцентр.Азия вы можете получить высокодетализированные автоматические прогнозы погоды по пунктам России, СНГ и мира в авиационном формате (включающие направление и скорость ветра, видимость, явления погоды, количество и форму облачности, нижнюю и верхнюю границу облачности).


Погода Полярный - сегодня

Время (UTC), дата Ветер
(°,м/с) 
Видим.   Явления Облачность Т
(°С)
Тd
(°С)
f(%) Тe
(°С)
Pmin
(гПа)
dP
(гПа)
Po
(мм)
O2
(г/м3)
Тmin Tmax R s Состояние
почвы
06 26.07.17 050 (СВ) 20000 м  слаб. ливневой дождь  10/6 480 м кучево-дожд., средняя 
[Cb cap|Ac und]
+15.3 +13.5 89 +24  1003.2  -0.7  710  268           
09 26.07.17 050 (СВ) 20000 м  {ливн. осадки}  10/8 1000 м средняя 
[Sc|Ac und]
+13.2 +12.1 93 +19  1003.5  -0.1  709  270           
12 26.07.17 020 (С) 2000 м  дымка{ливн. осадки}  10/8 210 м средняя 
[Frnb|As op]
+10.7 +10.7 100 +13  1005  0.9  710  273    +17.4     
15 26.07.17 010 (С) 20000 м  {дождь}  10/8 270 м средняя 
[Frnb|Ac und]
+9.3 +8.7 96 +10  1005.9  0.5  710  275           
18 26.07.17 010 (С) 20000 м  {дождь}  10/8 210 м средняя 
[Frnb|Ac und]
+8.3 +7.2 93 +8  1006.7  0.5  711  277           
21 26.07.17 040 (СВ) 20000 м  туман на расстоянии  10/8 60 м средняя 
[Frnb|Ac und]
+7.8 +7.3 97 +9  1007.3  0.5  711  277           
00 27.07.17 100 (В) 20000 м  {туман}  10/8 300 м средняя 
[Frnb|Ac und]
+7.8 +6.9 94 +7  1008  0.6  712  278  +7.8    0.3    влажная 
03 27.07.17 070 (В) 20000 м  слаб. дождь  10/8 330 м средняя 
[Frnb|As op]
+8.4 +6 85 +8  1008.9  712  277           
06 27.07.17 050 (СВ) 20000 м  в посл. час дождь  10/8 400 м средняя 
[Frnb|Ac und]
+8.3 +6.1 86 +8  1009.4  0.5  713  278           
09 27.07.17 060 (СВ) 20000 м  слаб. дождь  10/8 450 м средняя 
[Frnb|As op]
+8.6 +5.3 80 +9  1010.2  0.7  713  278           
12 27.07.17 360 (С) 20000 м  {дождь}  10/8 600 м средняя 
[Sc|Ac und]
+8.8 +5.7 81 +9  1011.2  1.1  714  278    +9  10     
15 27.07.17 020 (С) 20000 м  слаб. дождь  10/8 1000 м средняя 
[Sc|Ac und]
+6.8 +5.2 90 +6  1012.4  0.6  715  280           
18 27.07.17 010 (С) 20000 м  {дождь}  10/8 1000 м средняя 
[Sc|Ac und]
+6.5 +3.7 82 +6  1013.4  0.9  715  281           
21 27.07.17 030 (СВ) 20000 м    10/8 1000 м средняя 
[Sc|Ac und]
+6.3 +4 85 +6  1014.8  1.2  716  281           
00 28.07.17 тихо ()   20000 м    10/5 1000 м средняя 
[Sc|Ac und]
+7.7 +4.3 79 +8  1015.7  1.2  717  280  +5.6    0.0    влажная 
06 28.07.17 010 (С) 20000 м    8/4 600 м средняя 
[Cu med, cong|Ac trans]
+13 +0.4 42 +13  1015.7  0.2  718  276           
09 28.07.17 320 (СЗ) 20000 м    8/5 1000 м средняя 
[Cu med, cong|Ac trans]
+14.1 +0.8 40 +15  1015.9  0.4  718  275           
12 28.07.17 тихо ()   20000 м    6/4 1500 м верхняя 
[Sc|Ci fib]
+12.1 +1.6 49 +12  1016.1  -0.2  718  277    +14.4       
15 28.07.17 200 (Ю) 20000 м    5/0 верхняя 
[Ci fib]
+10.1 -0.7 47 +10  1017.3  0.7  719  279           
18 28.07.17 210 (ЮЗ) 20000 м    3/0 верхняя 
[Ci fib]
+8 -0.1 57 +8  1017.9  0.2  719  281           
21 28.07.17 230 (ЮЗ) 20000 м    3/0 верхняя 
[Ci fib]
+7.9 -0.3 56 +9  1018.3  0.3  719  281           
00 29.07.17 180 (Ю) 20000 м    3/0 верхняя 
[Ci fib]
+11.2 +0.6 48 +12  1017.6  0.1  719  278  +7.8        влажная 
03 29.07.17 190 (Ю) 20000 м    4/0 верхняя 
[Ci fib]
+14.3 -1 35 +14  1015.8  -1.1  718  275           
06 29.07.17 160 (Ю) 20000 м    4/0 верхняя 
[Ci fib]
+16.4 +0.2 33 +17  1013.3  -1.9  717  272           
09 29.07.17 160 (Ю) 20000 м    4/0 верхняя 
[Ci fib]
+17 -0.9 30 +17  1011.1  -2  715  271           
Время (UTC), дата Ветер
(°,м/с) 
Видим.   Явления Облачность Т
(°С)
Тd
(°С)
f(%) Тe
(°С)
Pmin
(гПа)
dP
(гПа)
Po
(мм)
O2
(г/м3)
Тmin Tmax R s Состояние
почвы

Для получения пояснительной информации подведите курсор к названию столбца.

ПОГОДА Полярный - архив

Всё, что Вы хотите узнать о погоде Полярный - удобно и подробно!

Выберите нужную дату (начиная с 1 января 2015* года) и нажмите кнопку "Найти".
Будут отображены архивные сводки погоды по пункту Полярный, начиная с указанной даты.


Отображать данные в формате CSV (для использования в таблицах Excel)


Внимание! Наш архив погоды предназначен исключительно для личного некоммерческого использования в познавательных целях. Если Вам необходимы официальные справки о состоянии погоды (для производственных, юридических, коммерческих и т.п. целей), обращайтесь в органы Росгидромета.

*Примечание: данная дата относится к архиву по метеостанциям СССР (Россия, СНГ, Балтия).
Архив по метеостанциям Зарубежной Европы и Азии (кроме Китая) хранится 10 дней, по другим регионам земного шара (Китай, Африка, Америка, Австралия, Океания) - 1 день.

Полярный - район местоположения метеостанции


Название, широта, долгота, высота метеостанции:
Полярный 66.5°ш. 112°д. 509 м над ур. моря [Российская Федерация]

Дополнительная информация

В oтличие oт бoльшинства пoгoдных сайтoв мы публикуем пoдрoбную метеoинфoрмацию в детальнoм прoфессиoнальнoм фoрмате.

Характеристики температуры и влажнoсти вoздуха измеряются на высoте 2 м в тени вдали oт зданий и деревьев.
Скoрoсть ветра измеряется на высoте 10 м (на урoвне рoста челoвека скoрoсть ветра ниже в 1.5-2 раза). Если метеoстанция нахoдится в гoрoде или в лесу, тo скoрoсть ветра занижена на 2-4 м/с пo сравнению с oткрытым местoм. Скoрoсть ветра над акватoриями крупных рек и oзёр, а также на вершинах хoлмoв на 2-5 м/с выше, чем в oбычных услoвиях.
Атмoсфернoе давление в разных тoчках местнoсти мoжет значительнo oтличаться oт давления на метеoстанции, в зависимoсти oт услoвий рельефа (при пoдъёме на 10 м давление пoнижается примернo на 1 мм рт.ст.).